Wind_Speed
81 81 81 81 82 83 83 84 85 86 87 87 87 88 88 89 91 92 93 95 97 98 99 98 98 98 99 100 101 102 103 104 105 106 107 108 108 108 108 109 109 110 110 111 111 111 111 110 110 109 109 108 109 110 111 113 114 117 119 121 123 124 126 127 127 128 128 128 127 126 126 125 125 125 126 128 130 132 134 136 137 137 136 136 136
84 84 84 84 84 85 85 85 86 86 87 88 88 89 89 90 90 91 92 93 95 97 98 99 99 99 101 102 102 103 103 104 106 107 108 109 109 109 110 110 111 112 112 113 113 113 112 112 111 111 111 111 111 112 113 115 117 120 122 124 125 126 127 127 127 127 127 127 126 125 125 124 124 125 127 129 131 133 134 135 136 136 136 135 136
88 88 88 87 87 87 87 87 88 88 89 89 89 90 90 90 91 91 92 93 94 96 97 98 99 100 101 102 103 104 104 105 107 108 109 110 110 111 111 112 113 113 114 114 115 115 114 114 113 113 113 112 113 114 116 118 120 122 124 126 126 127 127 126 126 126 126 126 125 124 123 123 124 125 128 130 132 133 133 134 134 135 135 136 136
90 90 91 91 91 91 90 90 90 90 90 91 91 92 92 92 92 93 93 94 94 95 96 97 98 100 101 102 103 104 105 106 108 109 111 111 112 112 113 114 114 115 116 116 116 116 116 115 115 114 114 114 115 117 119 121 123 124 125 126 126 126 126 125 125 125 124 123 123 122 122 123 125 127 129 130 131 132 132 132 133 134 135 136 137
92 92 93 93 93 94 94 94 93 93 93 93 93 93 93 94 94 95 96 97 97 97 97 98 99 100 101 102 103 104 105 106 108 109 111 113 113 114 115 116 117 117 118 118 117 117 116 115 115 115 115 116 118 119 121 122 124 125 125 125 125 125 125 124 123 123 122 121 121 122 123 124 126 128 129 130 130 130 131 132 133 134 135 136 137
93 94 94 94 95 95 95 95 95 96 96 96 96 96 96 96 96 97 98 99 99 99 99 100 101 102 103 103 104 105 106 107 108 109 111 113 114 114 115 117 118 118 118 118 118 117 116 116 115 116 117 119 120 121 122 123 124 124 124 124 124 123 123 123 121 120 119 120 121 123 125 126 127 128 129 129 129 129 129 130 132 134 135 136 136
94 95 95 95 96 96 97 97 97 98 98 99 99 99 99 99 100 100 100 101 101 101 101 102 102 103 104 105 105 106 107 108 109 110 112 113 114 114 115 116 117 117 118 118 118 117 116 116 117 118 119 120 120 121 122 122 122 122 122 122 122 122 121 120 119 118 119 120 122 124 126 127 127 127 128 129 129 128 128 128 130 133 134 135 135
95 96 97 97 98 98 98 99 99 100 100 101 101 101 102 102 102 103 103 104 104 104 104 104 104 105 105 105 106 107 108 109 110 111 112 113 114 115 116 116 116 117 117 117 117 116 116 117 118 118 119 119 119 120 120 121 121 121 121 120 120 119 119 118 118 118 119 122 124 125 126 126 127 127 127 128 128 128 129 129 129 130 132 133 134
97 98 98 99 99 100 100 100 101 101 101 102 102 103 104 104 105 105 106 106 107 107 107 107 107 108 108 108 108 108 109 109 110 111 112 113 114 115 116 117 117 117 117 116 116 116 116 117 118 118 118 118 119 119 119 120 120 119 118 118 118 118 117 117 118 119 122 124 124 125 126 126 126 126 126 127 128 128 128 129 129 129 131 133 135
100 101 101 101 102 102 103 103 103 103 104 104 104 105 105 106 106 107 107 108 109 109 109 109 110 110 110 110 110 110 110 110 110 110 111 112 112 114 115 116 117 117 117 117 116 117 117 118 118 117 117 118 118 118 118 118 117 117 116 116 116 117 117 118 120 122 123 124 124 125 126 126 125 125 126 127 127 127 127 127 128 129 131 133 134
104 105 105 105 106 106 106 106 107 107 107 107 107 107 107 108 108 109 109 110 110 111 111 111 112 112 112 112 112 112 112 112 111 111 111 111 112 113 114 115 117 117 117 117 117 117 117 117 117 117 117 117 117 117 116 115 115 115 115 115 116 118 119 120 122 122 123 123 124 125 125 124 125 125 125 126 126 126 126 127 128 130 132 133 133
107 107 108 108 109 109 109 110 110 110 110 110 110 110 110 110 111 111 112 112 113 113 113 114 114 114 114 114 114 114 113 113 113 112 111 111 111 112 113 115 116 116 117 117 117 116 116 116 116 117 116 116 115 114 114 114 114 114 115 116 118 119 121 122 122 122 122 123 124 124 123 123 124 125 125 125 125 125 126 127 129 131 133 134 134
109 109 110 110 111 111 112 112 112 113 113 113 113 113 114 114 114 114 115 115 115 116 116 116 116 117 117 116 116 116 115 115 114 113 112 112 112 113 113 114 115 116 116 116 116 116 116 116 116 116 115 114 113 113 113 113 114 115 116 118 119 121 121 122 121 121 122 123 123 122 123 123 124 124 124 124 124 125 127 129 130 132 133 134 135
111 111 112 112 112 113 113 114 114 115 116 116 117 117 117 117 117 117 117 118 118 118 118 118 118 118 118 118 117 116 116 115 114 114 113 113 113 113 113 114 114 114 115 115 115 116 116 116 115 114 113 112 112 112 112 113 115 116 117 118 119 120 120 120 120 120 121 121 121 122 122 122 122 123 123 124 125 126 128 129 130 132 133 134 135
113 113 113 113 114 114 115 116 117 117 118 119 119 119 119 119 119 119 119 118 118 118 118 118 118 118 118 117 117 116 115 114 114 113 113 112 113 113 113 113 114 114 115 115 115 115 114 113 112 111 111 111 111 112 113 115 116 116 117 118 118 119 118 117 118 119 120 120 121 121 121 121 122 122 123 124 126 128 129 130 130 131 132 133 133
116 116 116 116 116 116 117 118 119 119 120 120 120 121 120 120 119 118 118 117 116 116 116 116 117 117 116 116 115 114 114 113 112 112 112 112 112 113 113 113 114 114 114 114 113 112 111 110 110 110 110 110 111 113 114 114 114 115 116 117 117 116 116 116 117 118 118 119 119 119 120 121 122 123 124 125 127 128 129 130 130 130 129 129 130
118 118 118 118 118 118 119 119 119 119 119 119 119 118 117 116 116 115 114 114 113 113 113 113 113 113 113 113 113 112 111 110 109 109 109 109 109 110 110 110 110 110 110 110 109 109 108 108 108 108 109 110 111 111 112 112 113 114 114 114 114 114 114 115 116 116 117 117 117 118 120 121 123 124 125 126 127 128 128 128 128 127 126 126 127
118 117 117 117 118 118 118 118 117 117 116 114 113 111 110 110 110 110 110 110 110 109 108 108 108 108 108 107 107 106 105 105 104 103 102 102 102 103 103 103 103 104 104 104 104 104 104 105 105 106 107 108 108 109 109 110 111 112 112 112 112 113 113 114 114 115 115 116 117 119 121 122 124 125 126 126 127 127 126 125 124 124 124 125 125
113 113 112 113 113 114 114 113 112 111 109 107 106 105 104 103 103 103 104 104 104 103 102 101 100 99 99 99 98 98 97 96 96 95 94 94 94 94 95 95 96 97 97 98 99 99 100 101 103 104 104 105 106 107 107 108 109 109 110 111 111 111 112 112 113 113 114 116 118 120 122 124 125 125 125 124 124 123 122 122 122 123 123 123 124
107 106 106 107 107 106 105 104 103 102 101 100 100 99 98 97 97 96 95 95 95 94 93 93 91 90 90 89 89 89 89 88 88 88 87 87 87 88 89 90 91 92 93 95 96 97 98 99 100 101 102 103 104 105 105 106 107 108 109 109 109 110 110 111 112 113 115 118 120 121 122 123 123 122 121 120 120 120 120 121 121 122 122 122 123
100 100 100 100 99 97 95 94 94 94 94 94 93 92 92 91 90 89 88 87 87 86 86 85 85 84 83 82 82 82 82 82 82 82 82 83 84 85 86 87 89 90 92 93 94 95 96 98 99 100 101 101 102 103 104 105 106 107 107 107 108 109 110 112 113 116 117 119 120 121 120 120 119 118 117 117 118 118 119 120 120 121 121 122 123
93 93 93 92 90 88 87 87 87 87 87 87 87 86 85 84 83 82 82 81 81 80 80 79 79 78 78 77 77 77 77 77 77 78 79 80 81 82 84 85 87 88 90 91 92 93 94 95 97 98 99 100 101 101 103 103 104 105 106 107 109 110 112 114 116 117 118 118 118 117 116 115 115 115 116 116 117 117 118 119 120 120 122 123 124
85 85 85 84 83 82 82 82 82 82 82 82 81 79 78 77 76 75 75 75 75 75 74 74 74 74 73 73 74 74 74 75 75 76 77 78 79 81 82 83 85 86 87 88 90 92 93 94 95 96 97 98 99 100 102 103 105 106 108 110 112 113 115 116 116 116 115 113 112 112 112 113 113 114 115 116 116 116 117 118 120 121 123 125 126
78 78 78 78 78 78 78 78 79 78 78 77 76 74 73 72 71 70 70 70 71 71 71 71 72 72 72 73 74 74 75 75 76 77 78 79 80 81 82 83 84 85 87 88 89 91 92 93 94 95 96 98 100 102 103 105 107 109 111 112 114 115 114 113 112 110 109 108 109 109 110 111 112 113 114 115 115 116 118 119 121 123 125 127 129
73 73 73 73 74 74 75 75 75 75 74 73 72 71 69 68 68 68 68 68 69 70 70 71 72 73 74 75 76 76 77 78 79 79 80 81 81 82 83 84 85 86 87 88 90 91 92 94 95 97 99 101 103 105 107 109 110 111 112 112 112 111 109 107 106 105 105 106 107 108 108 109 110 112 113 115 116 117 119 121 123 125 127 129 131
69 69 69 70 71 71 71 72 71 71 70 70 69 68 68 67 67 67 68 68 68 69 70 71 72 74 76 77 79 80 80 81 82 83 83 84 84 85 86 87 88 89 90 91 93 94 96 97 99 101 103 105 107 108 109 110 110 109 108 106 105 104 103 102 103 103 104 104 105 106 107 108 110 112 114 116 117 119 121 123 125 126 128 130 133
67 66 67 68 68 69 69 68 68 68 68 67 67 67 67 67 67 68 68 68 68 69 69 70 72 73 75 77 79 81 83 84 86 87 87 88 89 90 91 92 93 94 94 96 97 98 100 101 103 104 105 106 107 106 105 104 103 101 100 99 99 99 100 100 101 102 103 103 104 105 107 108 110 112 115 117 119 121 123 125 127 128 130 132 134
63 63 64 65 65 66 67 67 67 67 67 67 67 67 67 67 68 68 68 68 68 69 69 70 71 72 73 75 77 79 81 84 86 88 89 90 91 92 93 94 96 97 97 98 99 100 100 101 101 101 101 100 99 98 97 96 96 95 95 96 96 97 98 100 101 102 102 103 104 106 108 110 112 114 116 119 121 123 125 127 129 130 132 133 135
60 60 60 61 62 63 64 65 65 66 66 66 67 67 68 68 68 69 69 69 69 69 70 70 71 71 72 73 75 76 78 81 83 84 86 87 89 90 91 92 93 94 94 94 94 94 93 93 93 93 93 92 92 92 92 92 92 93 93 94 95 96 98 99 101 102 103 104 106 108 110 112 114 116 119 121 123 125 127 129 131 132 133 135 136
58 57 58 58 59 60 62 63 63 64 65 65 66 66 67 67 68 68 69 69 69 70 70 70 71 71 72 73 74 75 76 78 80 81 82 83 84 84 85 86 86 86 86 86 86 86 86 87 87 88 88 89 89 90 90 91 91 91 92 93 95 96 98 100 102 103 105 106 108 110 112 115 117 119 121 123 126 128 129 131 132 134 135 136 138
57 57 57 57 57 58 58 59 59 60 61 62 62 63 64 64 65 66 67 68 68 69 70 71 71 71 72 73 73 74 75 76 77 78 78 79 80 80 81 81 82 82 82 82 83 83 84 85 85 86 87 87 88 89 89 90 91 92 93 94 96 98 100 102 104 105 107 108 110 112 114 117 119 121 123 125 127 129 130 132 133 135 136 139 140
57 56 55 55 55 54 54 54 54 54 55 56 57 58 59 60 61 62 64 65 66 67 68 70 71 71 72 72 73 73 74 75 76 77 77 78 78 79 79 79 80 80 81 81 82 82 83 84 84 85 86 86 87 88 89 90 92 93 94 96 98 100 102 104 106 107 108 110 112 114 116 119 121 122 124 126 128 129 131 132 134 136 138 141 142
54 54 53 53 51 50 49 49 49 49 51 52 54 55 56 58 60 62 63 65 66 66 67 68 69 70 71 72 72 73 74 74 75 76 77 77 78 78 78 78 78 79 80 80 81 82 82 82 83 84 85 86 88 89 91 92 94 96 97 99 100 102 103 105 107 109 110 112 114 116 118 120 121 123 125 126 128 130 132 134 136 138 140 142 144
52 52 51 50 49 47 46 46 46 47 49 51 52 53 54 56 58 60 63 65 67 68 69 70 70 71 71 72 72 73 73 74 75 76 76 77 77 77 77 76 77 78 79 79 80 80 81 82 82 84 85 87 89 91 93 95 97 99 100 101 102 103 104 106 108 110 112 114 116 117 119 121 122 124 125 127 129 131 134 136 138 139 141 143 144
52 52 51 50 49 48 47 47 48 50 51 51 52 54 55 57 58 60 62 64 66 67 69 71 73 74 75 75 75 74 74 74 75 75 75 76 76 75 74 75 76 77 78 78 79 81 82 83 84 86 88 90 92 94 96 98 99 101 102 102 103 104 106 108 110 112 114 115 117 119 120 122 124 125 127 129 131 134 136 138 139 141 142 144 145
55 55 54 53 53 52 51 51 53 53 53 55 57 58 60 61 63 64 66 67 67 69 70 72 73 75 78 79 80 79 79 78 77 77 77 77 77 77 76 77 78 79 80 81 82 84 85 86 88 89 91 93 94 96 97 99 100 101 102 103 104 106 107 110 112 114 116 117 119 120 122 124 126 128 130 132 134 136 138 139 141 142 144 145 146
61 62 61 60 59 59 58 58 59 59 60 62 63 63 64 66 67 69 71 72 73 75 77 78 79 80 82 82 82 82 83 83 83 83 83 83 83 82 82 82 82 83 84 85 86 87 88 89 91 92 93 94 95 96 98 99 101 102 103 104 106 107 109 111 114 116 117 119 121 122 124 126 128 130 132 134 136 138 140 141 143 144 145 147 148
66 67 67 67 67 67 67 67 67 68 70 71 70 70 72 73 74 76 78 79 80 83 85 86 87 89 90 89 85 84 84 85 87 88 88 89 89 88 88 87 87 87 88 89 90 90 90 92 93 95 96 96 97 98 99 100 102 104 105 107 108 110 112 114 116 118 120 122 123 125 127 129 131 133 135 137 139 140 142 143 144 146 147 148 149
70 70 71 71 71 72 72 73 74 76 77 78 79 79 80 80 81 83 84 86 88 90 91 93 94 96 97 96 90 86 85 86 87 89 90 91 91 92 92 91 91 91 92 92 93 93 93 94 95 96 97 98 99 100 101 104 106 107 108 110 111 112 115 117 119 121 123 125 127 128 130 132 134 135 137 139 141 142 144 145 146 148 149 150 150
77 76 76 77 77 78 78 78 79 81 83 84 85 86 87 87 88 89 90 93 95 95 96 99 101 103 104 101 94 88 86 86 87 89 90 91 92 93 93 94 94 94 94 94 95 95 95 96 97 98 98 100 101 103 105 107 109 110 111 112 113 115 118 120 122 124 126 128 130 131 133 134 136 138 140 142 143 145 146 147 148 149 150 151 152
83 83 83 84 84 84 84 84 85 87 88 89 90 91 92 93 94 95 96 99 100 100 102 105 107 108 108 104 97 90 87 87 87 88 89 91 92 93 93 94 95 95 96 96 97 97 97 98 98 99 101 103 105 107 108 110 111 113 114 115 117 119 121 123 126 127 129 131 132 134 135 137 139 141 142 144 145 147 148 149 150 151 152 152 153
88 88 89 89 88 88 89 89 90 91 92 93 94 96 97 98 100 102 104 105 106 108 110 112 112 112 110 105 98 92 88 87 87 88 89 90 91 92 93 94 95 96 97 98 99 99 100 100 101 102 103 105 107 109 111 113 114 116 117 118 120 122 124 126 128 130 132 133 135 136 138 140 141 143 145 146 148 149 150 151 152 153 153 154 153
94 94 93 92 91 91 91 92 93 94 96 98 100 102 104 105 106 107 109 111 112 114 116 117 116 114 110 104 98 93 90 89 88 89 89 90 91 92 93 94 95 97 98 99 100 101 102 103 104 105 106 108 110 112 114 116 117 119 120 122 123 125 126 129 131 133 135 136 138 139 141 142 144 146 147 149 150 151 152 153 153 154 154 154 153
98 98 97 95 94 94 94 95 97 99 101 103 106 107 109 110 111 112 113 115 117 119 120 120 118 114 109 103 97 93 91 90 90 90 91 92 92 93 94 95 96 97 99 100 102 103 104 105 107 108 110 112 114 115 117 119 120 122 123 125 126 128 130 132 134 136 138 139 140 142 144 145 147 148 150 151 152 152 153 154 154 154 154 153 151
102 102 100 99 99 99 100 101 103 105 107 109 111 112 113 114 115 116 118 119 121 123 123 121 118 113 108 103 98 95 93 92 92 92 92 93 94 95 96 97 98 99 100 101 103 104 106 108 109 111 113 114 116 118 119 121 123 125 127 128 130 131 133 135 137 139 140 142 144 145 146 148 149 151 152 153 153 154 154 155 154 153 152 150 148
107 106 105 104 105 105 106 108 110 111 113 114 115 117 117 118 119 120 121 123 125 125 124 121 117 112 107 102 98 96 95 94 94 94 94 94 95 97 98 99 100 100 101 103 104 106 108 110 111 113 115 117 118 120 122 124 126 128 130 132 133 135 137 139 140 142 144 145 147 148 149 151 152 153 153 154 154 154 154 153 152 151 149 147 144
110 110 109 109 110 111 112 114 115 116 118 119 120 120 121 122 123 124 125 126 127 127 125 121 116 110 105 102 99 97 97 96 96 96 96 97 97 99 100 101 102 103 104 105 107 108 110 112 114 115 117 119 121 123 125 127 129 131 133 135 137 139 140 142 144 145 147 148 149 151 151 152 153 154 154 154 154 153 152 151 149 148 145 142 139
113 113 113 113 114 116 117 119 120 121 121 122 123 124 125 126 127 128 129 129 129 129 126 120 114 109 104 101 99 98 98 98 98 98 99 99 100 101 102 103 105 106 107 109 110 112 113 115 116 118 120 122 124 126 128 130 132 134 136 138 140 142 143 145 146 148 149 151 152 152 153 154 154 154 154 153 152 151 150 148 146 143 140 137 134
117 117 117 118 119 121 122 123 124 124 125 126 126 127 128 129 130 131 132 132 132 130 126 120 113 107 103 101 100 99 98 99 99 100 101 102 103 104 106 107 108 109 110 112 113 115 117 118 120 122 123 125 127 129 131 133 135 137 139 141 143 145 146 148 149 150 152 152 153 154 154 154 154 153 152 151 149 148 146 143 141 138 134 131 128
119 120 121 122 124 126 127 128 128 128 128 129 130 131 132 133 134 134 134 134 134 132 127 119 111 106 102 100 99 99 99 100 101 102 104 105 106 107 109 110 111 112 113 115 116 118 120 121 123 125 127 129 131 133 135 137 139 140 142 144 146 147 149 150 151 152 153 153 153 153 153 153 152 150 149 147 145 143 140 137 134 131 128 124 121
122 124 126 127 129 131 132 131 131 131 131 132 133 135 136 136 136 136 136 136 135 132 126 118 110 105 102 100 100 100 101 102 103 105 106 108 109 110 111 112 114 115 116 118 119 121 123 125 127 128 131 133 135 136 138 140 142 144 145 147 148 150 151 152 152 152 152 152 152 151 151 150 148 146 144 142 139 136 134 131 127 124 121 117 114
Wind_Direction
277 277 277 276 276 276 276 276 276 277 277 277 277 277 277 278 278 279 280 280 281 281 282 283 283 283 284 284 284 285 286 286 287 287 288 288 289 290 290 291 291 292 292 293 293 294 295 295 296 296 296 297 297 297 298 298 298 299 300 300 301 301 302 303 304 305 306 308 309 310 311 311 312 312 312 313 313 314 314 315 315 316 317 317 317
279 279 278 278 278 278 278 278 278 278 278 278 278 278 278 279 279 279 280 280 280 281 282 282 283 283 284 284 284 285 285 286 287 287 288 288 289 290 290 291 291 292 292 292 293 294 294 295 295 295 296 296 297 297 297 297 298 298 299 299 300 301 302 303 304 305 307 308 309 310 310 311 311 311 312 312 313 313 314 314 315 316 316 317 317
279 279 279 278 278 278 278 278 279 279 279 279 280 280 280 280 280 280 280 280 280 281 282 282 283 283 284 284 285 285 286 286 287 287 288 288 289 289 290 291 291 291 292 292 293 294 294 294 295 295 295 296 296 296 296 296 297 297 298 299 300 300 301 303 304 306 307 308 309 310 310 310 310 311 311 312 313 313 313 314 315 315 316 316 316
279 279 279 279 279 279 279 279 279 279 280 280 281 281 281 282 282 282 282 281 281 282 282 282 283 283 283 284 284 285 286 286 286 287 288 288 289 289 290 290 291 291 292 292 293 293 293 294 294 294 294 294 294 294 295 295 296 297 297 298 299 300 302 303 304 306 307 308 308 309 309 309 310 310 311 312 312 312 313 314 314 314 315 315 315
279 279 279 280 280 280 281 281 281 281 281 281 280 281 281 281 282 282 282 283 283 283 283 283 283 283 284 284 285 285 285 286 286 287 287 288 288 289 289 289 290 290 291 291 292 292 292 292 293 293 293 292 293 293 294 295 295 296 297 298 299 301 302 303 305 306 307 307 308 308 308 309 309 310 311 311 311 312 313 313 313 314 314 314 315
279 279 279 280 280 280 281 281 282 282 282 282 282 281 281 281 281 281 282 282 282 283 283 283 283 284 284 285 285 285 286 286 286 286 287 287 288 288 288 289 289 289 290 290 290 290 291 291 291 291 291 291 292 293 293 294 295 296 297 299 300 301 302 304 305 306 306 306 306 307 308 308 309 309 310 310 311 311 312 312 313 313 313 314 314
278 279 279 279 279 280 280 280 280 281 281 281 282 282 282 282 282 282 282 282 282 282 282 282 282 283 283 283 284 284 285 285 286 286 286 287 287 287 288 288 288 289 289 289 289 289 290 290 290 290 290 291 292 293 294 295 296 297 298 299 300 301 303 304 305 305 305 305 306 307 307 308 308 309 309 310 310 310 311 311 312 312 313 313 314
278 279 279 279 279 280 280 280 280 280 281 281 281 281 282 282 282 282 283 283 283 283 283 282 282 282 282 282 283 283 283 284 284 284 285 286 286 287 287 287 288 288 288 288 288 288 289 289 289 289 290 291 292 293 294 295 296 297 298 300 301 302 303 303 304 304 304 305 306 306 306 307 308 308 308 309 309 310 310 311 311 311 312 312 313
278 279 279 279 280 280 280 280 280 280 280 280 281 281 281 281 281 282 282 282 283 283 283 283 283 283 283 283 283 283 283 283 283 283 284 284 285 285 286 286 286 287 287 287 287 288 288 288 289 290 291 292 293 294 295 296 297 298 299 300 301 302 302 302 303 303 304 305 305 305 306 306 307 307 307 308 309 309 310 310 311 311 311 312 312
277 278 278 279 279 279 280 280 280 280 280 280 280 281 281 281 281 281 282 282 282 282 282 282 283 283 283 283 283 283 283 283 283 283 283 283 283 284 284 285 285 285 286 286 286 287 287 288 289 290 291 292 293 294 295 296 297 298 299 300 300 301 301 301 302 304 304 304 304 304 305 306 306 306 306 307 308 308 309 310 310 310 311 311 312
277 277 278 278 279 279 279 280 280 280 280 281 281 281 281 281 281 281 281 281 281 281 281 281 281 282 282 282 282 282 282 282 282 282 282 282 282 283 283 283 284 284 285 285 286 286 287 288 289 290 291 292 293 294 295 296 297 298 298 299 299 299 300 301 302 303 303 303 303 304 305 305 305 305 306 307 307 308 309 309 310 310 310 311 311
277 277 278 278 279 279 280 280 280 281 281 281 281 281 281 281 281 281 281 281 281 281 281 281 281 281 281 281 281 282 282 282 282 282 281 281 281 281 281 281 282 283 283 284 285 286 287 288 288 289 291 292 293 294 295 296 296 297 297 298 298 299 300 301 302 302 302 302 303 303 304 304 304 305 306 306 307 308 308 309 309 309 310 310 311
277 278 278 279 279 279 280 280 280 281 281 281 282 282 282 282 282 282 282 281 281 281 281 281 281 281 280 280 280 280 280 280 280 280 280 280 280 280 280 280 281 281 282 283 284 285 286 287 288 289 291 292 293 294 294 295 295 296 296 297 298 299 300 301 301 301 301 301 302 302 303 303 304 304 305 306 307 307 308 308 309 309 310 310 311
278 278 279 279 279 280 280 281 281 282 282 282 283 283 283 283 282 282 282 282 281 281 281 281 280 280 280 280 280 279 279 279 279 279 279 279 279 279 279 279 280 281 282 282 283 284 285 287 288 290 291 292 292 293 293 294 295 295 296 297 298 298 299 300 300 300 300 301 301 302 302 303 303 304 305 306 307 307 307 308 308 309 310 310 311
278 278 279 279 280 280 281 282 282 282 283 283 283 283 283 283 283 282 282 281 281 281 280 280 280 279 279 279 278 278 278 278 278 278 277 277 278 278 278 279 279 280 281 282 283 285 286 287 289 290 291 291 292 292 293 294 295 295 296 296 297 298 298 299 299 299 299 300 301 301 302 303 303 304 305 306 306 306 307 308 308 309 310 310 311
278 278 279 279 280 280 281 281 282 283 283 283 283 283 283 283 282 282 281 281 280 280 279 278 278 278 277 277 277 277 277 277 277 277 277 277 277 277 278 279 280 281 282 283 285 286 287 288 289 290 290 291 291 292 293 294 294 294 295 296 296 297 297 298 298 298 299 300 301 301 302 302 303 304 305 305 306 306 307 308 309 309 310 311 312
279 279 280 280 281 281 281 282 282 283 283 283 283 283 282 282 282 281 281 280 279 278 277 277 277 277 276 276 276 276 277 277 277 277 277 278 278 279 279 280 281 282 284 285 286 287 288 289 289 289 290 290 291 292 292 293 293 294 294 295 295 296 296 297 297 298 299 300 301 301 302 302 303 304 304 305 306 307 307 308 309 309 310 311 312
279 280 281 281 282 282 283 283 283 283 282 282 282 281 281 280 280 279 278 278 277 277 276 276 276 277 277 277 277 278 278 278 278 279 279 279 280 280 281 282 283 284 285 286 286 287 287 288 288 288 289 290 290 290 291 292 292 293 293 294 294 295 296 296 297 298 299 300 300 301 301 302 303 304 305 305 306 307 307 308 309 310 310 311 311
280 281 282 282 283 283 283 283 282 282 282 281 280 279 279 278 277 276 276 276 276 276 276 276 276 277 277 278 278 279 280 280 280 281 281 281 282 282 282 283 284 284 284 285 285 285 286 286 287 287 288 288 289 290 290 291 291 292 292 293 294 295 296 297 298 298 299 300 300 301 301 302 303 304 305 306 306 307 308 308 309 310 310 311 311
282 283 283 283 283 283 283 282 282 282 281 280 278 277 277 276 276 276 276 276 277 278 278 278 278 278 278 278 279 279 280 280 281 281 282 282 282 282 282 282 282 282 283 283 283 284 284 285 286 286 287 288 288 289 290 290 291 292 293 294 294 295 296 297 298 298 299 299 300 301 302 303 304 305 305 306 306 307 308 308 309 310 310 311 312
285 285 284 284 284 283 283 282 282 281 279 278 277 277 277 277 277 278 278 278 278 279 279 279 280 279 279 279 279 279 280 280 280 281 281 281 281 281 281 281 281 281 282 282 283 284 284 285 285 286 287 288 288 289 290 290 291 292 293 294 295 295 296 297 297 298 299 300 301 302 303 303 304 305 305 306 307 307 308 309 309 310 311 312 313
286 285 285 285 284 284 283 282 281 280 279 278 278 278 278 279 279 280 280 281 281 281 281 281 281 281 281 281 281 281 281 281 282 282 281 281 281 281 281 281 281 282 282 283 283 284 284 285 286 286 287 288 289 290 290 291 292 292 293 294 295 295 296 297 298 299 300 301 302 302 303 304 304 305 305 306 307 307 308 309 310 311 311 312 313
285 285 285 284 284 283 282 282 281 281 280 279 279 279 280 280 281 282 282 283 283 283 283 282 282 283 283 283 284 284 284 284 284 283 283 283 283 282 282 282 282 283 283 284 284 285 285 286 287 288 288 289 289 290 290 291 291 292 293 294 295 296 297 298 299 300 301 301 302 303 303 304 304 305 306 306 307 308 309 310 310 311 312 313 314
285 285 284 284 283 283 282 282 281 281 280 280 280 280 280 281 281 282 282 283 283 283 283 282 282 282 282 283 283 284 284 284 284 284 284 284 284 284 284 284 284 284 285 285 285 286 286 287 287 288 288 289 289 289 290 291 292 293 294 295 296 297 298 299 300 300 301 302 303 303 304 304 305 306 306 307 308 309 310 310 311 312 312 313 313
285 285 284 283 283 283 283 282 282 281 281 280 280 280 280 281 281 281 282 282 282 282 282 281 281 280 279 280 281 282 282 282 282 282 282 282 283 283 283 284 284 284 285 285 285 286 286 287 287 288 288 289 289 290 291 292 293 294 295 296 297 298 298 299 300 301 302 302 303 303 304 305 306 306 307 308 308 309 310 310 311 311 312 312 313
286 284 282 282 282 283 283 283 282 281 281 281 280 280 281 281 281 281 281 281 281 281 281 281 280 279 279 279 279 279 280 280 281 281 281 281 282 282 283 283 283 284 284 285 285 286 286 287 288 288 289 290 290 291 292 293 294 295 296 297 298 299 299 300 301 302 302 303 303 304 305 306 306 307 307 308 308 309 309 310 310 311 312 312 313
287 285 283 282 283 283 283 283 282 282 281 281 281 281 282 282 282 282 281 281 281 281 281 280 280 280 279 279 279 279 279 279 280 280 281 281 282 282 283 283 284 284 285 285 286 287 288 288 289 289 290 290 291 292 293 294 295 296 297 298 299 300 300 301 302 302 303 304 304 305 305 306 306 306 307 307 307 308 309 309 310 311 312 313 313
288 286 285 284 283 283 283 283 283 283 283 283 283 284 284 284 284 283 283 282 282 281 281 281 280 280 280 280 280 280 280 280 280 281 281 282 282 283 283 284 285 285 286 286 287 288 289 289 290 290 291 292 293 294 294 295 296 297 298 298 299 300 301 302 303 303 304 304 305 305 305 305 305 305 306 306 307 308 308 309 310 311 312 312 313
290 289 287 287 286 285 285 285 285 286 286 286 287 287 287 286 286 285 285 284 283 282 282 282 282 282 282 282 282 282 282 282 283 283 283 283 284 284 285 285 286 287 287 288 289 289 290 291 291 291 292 293 294 294 295 295 296 297 298 299 300 301 302 303 303 303 304 304 304 304 304 304 304 305 306 307 307 308 309 310 310 311 312 312 312
292 291 291 290 290 290 290 290 291 291 291 291 291 291 291 290 289 288 288 287 286 285 284 284 284 284 284 284 284 284 285 285 285 285 286 286 286 287 287 288 289 289 290 290 291 291 291 291 292 292 293 294 294 295 295 296 297 298 298 300 301 302 302 302 302 302 303 303 303 303 303 304 305 305 306 307 308 309 309 310 310 311 311 311 312
292 292 292 292 293 293 294 294 294 294 294 294 295 294 294 294 293 292 291 290 289 288 287 287 287 286 286 287 287 287 287 287 288 288 288 289 289 290 290 291 291 292 292 292 292 291 291 292 293 293 293 294 294 295 295 296 297 298 299 300 301 301 301 301 301 302 302 302 303 303 304 304 305 306 307 308 308 309 309 310 310 310 311 311 311
292 292 292 293 294 295 296 297 297 297 298 298 299 299 299 299 298 298 297 296 295 294 293 292 291 291 290 290 290 290 290 290 290 291 291 291 291 291 291 292 292 292 292 292 292 292 292 293 293 294 294 294 294 294 295 296 297 298 299 300 300 300 301 301 301 302 302 302 303 303 304 305 306 306 307 308 308 309 309 309 310 310 310 310 310
290 290 291 293 294 296 298 300 301 302 304 305 305 306 306 306 306 306 305 303 302 300 299 298 297 296 295 294 293 293 293 293 292 292 292 292 292 292 292 293 293 293 293 293 293 293 293 293 294 294 294 294 294 294 295 296 296 297 298 299 300 300 300 301 301 301 302 302 303 304 304 305 306 306 307 307 308 308 308 308 309 309 309 310 310
288 289 289 290 292 295 298 300 301 303 305 306 307 307 308 310 310 310 309 308 306 305 303 302 300 299 298 296 295 295 294 294 293 293 293 293 293 293 293 294 294 294 293 294 294 294 294 294 294 294 294 294 294 295 295 296 297 298 298 299 299 299 300 300 300 301 302 302 303 304 304 305 305 306 306 307 307 307 307 308 308 308 309 309 310
287 288 288 288 289 291 293 295 297 300 301 302 303 304 305 307 308 309 309 309 308 308 306 305 303 301 300 299 298 297 296 295 294 294 294 293 293 293 294 294 294 294 294 294 294 294 294 294 294 294 295 295 295 296 296 297 297 297 298 298 299 299 300 300 301 301 302 302 303 303 304 304 305 305 306 306 306 306 306 307 307 308 309 309 310
285 287 288 287 288 289 290 291 294 296 297 299 301 303 304 305 306 307 307 308 308 308 308 308 307 306 303 301 299 298 297 296 296 295 294 294 293 293 293 293 293 293 294 294 294 294 294 294 295 295 295 296 296 296 296 297 297 297 298 298 299 300 300 301 301 301 302 302 302 303 303 304 304 304 305 305 305 305 306 307 307 308 309 310 310
282 285 286 287 287 288 288 289 291 293 295 297 299 299 301 303 305 306 307 307 308 309 309 309 309 310 309 306 302 300 298 297 296 296 295 294 294 294 294 293 293 293 294 294 294 294 294 295 295 295 296 296 296 296 296 297 297 298 299 299 300 301 301 301 301 301 302 302 302 303 303 303 303 304 304 305 305 306 306 307 308 309 310 310 311
284 286 288 289 290 290 290 291 292 293 295 298 299 300 302 303 304 306 307 308 308 310 311 311 311 312 313 311 306 302 299 298 297 296 295 295 295 294 294 294 294 293 293 293 293 294 294 294 295 295 296 296 296 296 297 298 298 299 299 300 301 301 301 301 302 302 302 302 302 302 302 303 303 304 304 305 306 307 307 308 309 309 310 310 311
289 291 292 293 294 294 294 294 295 296 299 301 303 305 306 306 306 307 307 308 309 310 311 312 312 312 313 312 308 304 300 298 296 296 295 295 294 294 294 294 293 293 293 293 293 293 293 294 294 295 295 296 296 297 298 298 299 300 300 300 301 301 302 302 302 302 302 302 302 302 303 303 304 305 306 306 307 308 308 309 309 309 310 310 310
294 295 295 296 297 297 297 297 298 300 302 304 305 307 308 308 308 309 309 310 310 310 311 312 312 312 312 311 308 304 300 297 295 295 295 294 294 294 294 294 294 293 293 293 293 293 293 294 294 295 296 296 297 298 298 299 299 300 300 300 301 301 301 301 301 301 301 302 302 303 304 305 305 306 307 307 307 308 308 308 309 309 309 310 310
295 296 297 297 298 299 299 300 301 303 304 305 306 307 307 308 309 310 310 311 311 311 311 311 311 311 311 309 306 303 300 297 294 294 294 294 293 293 293 293 294 294 293 293 294 294 294 294 295 295 296 296 297 298 298 299 299 299 300 300 300 301 301 301 302 302 302 303 303 304 305 306 306 307 307 307 307 307 308 308 308 308 309 309 309
296 297 297 298 298 298 299 300 302 303 304 305 306 307 308 309 309 310 311 311 311 311 312 312 311 311 310 307 304 301 299 297 294 293 293 293 293 293 293 293 293 293 294 294 294 294 294 295 295 295 296 296 297 297 298 298 299 299 300 300 301 301 302 302 302 302 303 304 304 305 306 306 306 306 306 306 306 307 307 307 307 308 308 308 309
298 298 298 298 298 298 299 300 302 303 304 306 307 307 308 309 309 310 310 310 311 311 311 311 310 309 308 305 302 299 298 297 294 292 292 292 293 293 293 293 294 294 294 294 294 295 295 295 295 296 296 296 297 298 298 299 299 300 300 301 301 302 302 302 303 303 303 304 305 305 305 305 305 305 305 305 306 306 306 306 307 307 307 308 308
297 297 298 298 298 299 300 301 302 304 304 305 306 307 307 308 308 308 308 309 309 310 310 310 309 307 305 302 299 297 296 296 294 293 292 292 293 293 294 294 295 295 295 295 295 295 295 295 296 296 297 297 298 298 299 299 300 300 301 301 301 302 302 302 303 303 304 304 304 304 304 304 304 304 304 305 305 305 306 306 306 307 307 307 308
297 298 298 298 299 300 301 302 303 304 304 305 305 305 306 306 307 307 308 308 309 309 309 309 307 305 303 300 297 295 294 294 293 293 292 292 293 293 294 294 295 295 295 295 295 295 296 296 296 297 297 298 298 298 299 299 300 300 300 301 301 302 302 302 303 303 303 303 303 303 303 303 303 304 304 304 305 305 305 306 306 306 306 307 307
297 297 297 298 299 300 301 302 302 303 303 303 303 304 304 305 306 306 307 308 308 308 308 307 305 303 300 297 295 293 293 292 292 292 291 291 292 293 293 294 294 294 294 295 295 295 296 296 296 297 297 298 298 298 299 299 300 300 300 301 301 301 302 302 302 302 302 302 302 302 303 303 303 303 304 304 304 305 305 305 305 306 306 306 307
295 296 296 297 298 299 300 301 301 302 302 302 302 303 303 304 305 306 306 307 308 308 307 306 303 300 297 295 293 292 291 291 291 291 291 291 292 292 293 293 294 294 294 294 295 295 295 296 296 297 297 297 298 298 298 299 299 300 300 300 301 301 301 301 301 301 301 302 302 302 302 302 303 303 303 304 304 304 304 305 305 305 306 306 306
294 295 295 296 297 298 299 299 300 300 301 301 302 302 303 304 304 305 305 306 307 307 307 305 302 298 295 293 291 291 290 290 290 290 291 291 292 292 293 293 294 294 294 295 295 295 295 296 296 296 296 297 297 298 298 298 299 299 300 300 300 300 300 300 301 301 301 301 301 301 302 302 302 303 303 303 304 304 304 304 305 305 305 305 305
293 294 294 295 296 297 298 298 299 299 300 301 301 302 303 303 304 304 305 306 307 307 306 304 300 296 293 291 290 290 290 289 290 290 291 291 292 292 293 294 294 294 294 295 295 295 295 296 296 296 296 297 297 297 298 298 299 299 299 299 299 300 300 300 300 300 300 301 301 301 301 302 302 302 303 303 303 303 304 304 304 304 304 304 304
292 293 293 294 295 296 296 297 298 298 299 300 301 302 302 303 303 304 305 306 307 307 306 303 299 295 292 291 290 290 290 290 290 290 291 291 292 292 293 293 294 294 294 294 295 295 295 296 296 296 296 297 297 297 297 298 298 298 298 299 299 299 299 299 299 300 300 300 301 301 301 301 302 302 302 303 303 303 303 303 303 303 303 303 303
291 291 292 293 294 295 295 296 297 298 299 300 301 301 302 302 303 304 305 306 306 306 305 302 298 294 292 290 290 289 289 289 290 290 291 291 292 292 293 293 294 294 295 295 295 295 295 296 296 296 296 296 297 297 297 297 297 297 297 298 298 298 298 298 299 299 300 300 300 301 301 301 302 302 302 302 302 302 302 302 302 302 302 302 302
Height
10760 10760 10760 10760 10759 10758 10757 10757 10756 10755 10754 10754 10754 10753 10752 10750 10749 10747 10745 10742 10738 10735 10731 10731 10732 10730 10727 10724 10721 10718 10715 10712 10707 10703 10700 10697 10695 10694 10692 10689 10686 10682 10678 10675 10671 10667 10664 10661 10657 10653 10649 10644 10639 10633 10628 10622 10616 10610 10604 10598 10593 10587 10580 10575 10570 10563 10558 10554 10548 10543 10536 10530 10523 10515 10508 10500 10492 10484 10477 10470 10463 10458 10452 10444 10434
10751 10751 10750 10750 10749 10748 10747 10746 10745 10744 10744 10743 10743 10742 10741 10740 10739 10738 10736 10733 10729 10726 10723 10721 10721 10719 10716 10713 10711 10708 10706 10703 10697 10694 10691 10688 10686 10684 10682 10680 10676 10672 10668 10665 10661 10658 10655 10651 10647 10643 10638 10633 10628 10623 10617 10611 10606 10600 10594 10588 10583 10577 10571 10566 10562 10555 10548 10543 10537 10532 10526 10519 10512 10504 10498 10491 10483 10475 10467 10460 10452 10446 10440 10434 10425
10740 10740 10740 10739 10739 10739 10738 10737 10735 10734 10733 10733 10732 10731 10731 10730 10729 10728 10726 10723 10721 10717 10714 10713 10711 10709 10706 10703 10700 10698 10696 10693 10688 10684 10680 10678 10676 10674 10671 10669 10666 10662 10658 10655 10651 10648 10644 10640 10636 10632 10627 10622 10617 10612 10606 10601 10596 10590 10585 10579 10573 10567 10562 10558 10553 10547 10540 10533 10527 10522 10515 10508 10502 10495 10488 10481 10474 10466 10457 10450 10443 10435 10429 10424 10416
10728 10728 10728 10727 10727 10727 10727 10727 10726 10726 10724 10723 10722 10720 10720 10719 10717 10716 10714 10712 10711 10708 10706 10704 10701 10698 10696 10693 10690 10687 10685 10682 10678 10675 10670 10667 10666 10663 10660 10658 10655 10651 10648 10645 10641 10638 10634 10630 10626 10621 10616 10611 10605 10600 10595 10590 10585 10580 10575 10569 10563 10557 10553 10549 10544 10539 10532 10524 10518 10512 10506 10499 10493 10486 10479 10472 10464 10457 10448 10441 10435 10426 10418 10412 10406
10717 10717 10717 10717 10716 10715 10715 10715 10715 10715 10714 10713 10712 10710 10710 10708 10706 10704 10702 10700 10699 10698 10696 10694 10690 10687 10685 10682 10680 10677 10675 10671 10668 10665 10660 10656 10655 10653 10650 10647 10644 10640 10638 10635 10631 10627 10623 10619 10615 10609 10604 10599 10594 10589 10584 10579 10575 10569 10564 10559 10553 10548 10543 10539 10535 10530 10523 10516 10509 10502 10497 10490 10484 10478 10471 10463 10456 10448 10439 10430 10424 10417 10409 10402 10394
10706 10706 10706 10706 10706 10705 10705 10704 10704 10703 10701 10701 10700 10699 10698 10698 10696 10694 10691 10689 10687 10686 10685 10682 10679 10676 10674 10672 10669 10666 10663 10660 10657 10654 10650 10646 10644 10642 10639 10636 10633 10630 10627 10624 10620 10616 10612 10608 10603 10597 10591 10587 10582 10578 10573 10568 10564 10559 10553 10548 10543 10538 10534 10529 10525 10520 10514 10508 10501 10493 10487 10482 10475 10469 10461 10454 10448 10442 10433 10422 10412 10405 10399 10393 10385
10696 10696 10695 10695 10695 10694 10694 10693 10693 10691 10690 10689 10688 10687 10686 10684 10684 10682 10680 10678 10676 10674 10673 10671 10668 10665 10663 10661 10658 10655 10652 10649 10647 10643 10639 10636 10633 10630 10628 10624 10621 10619 10616 10612 10608 10604 10600 10595 10590 10584 10579 10575 10571 10567 10562 10557 10553 10547 10542 10537 10532 10528 10524 10519 10515 10510 10504 10498 10492 10484 10478 10472 10467 10460 10452 10444 10438 10434 10428 10420 10408 10397 10387 10381 10377
10686 10685 10684 10684 10683 10682 10682 10681 10681 10680 10679 10678 10676 10675 10674 10672 10671 10669 10667 10665 10663 10661 10660 10658 10655 10654 10651 10649 10647 10644 10641 10638 10635 10632 10628 10626 10622 10619 10616 10613 10610 10607 10603 10600 10596 10591 10587 10582 10577 10572 10568 10564 10560 10556 10551 10546 10541 10536 10531 10527 10522 10517 10513 10509 10504 10500 10494 10488 10482 10475 10468 10463 10457 10450 10442 10436 10429 10423 10418 10411 10403 10393 10382 10372 10368
10675 10674 10673 10672 10671 10670 10670 10669 10668 10668 10666 10665 10664 10663 10662 10660 10659 10657 10655 10653 10651 10648 10646 10644 10642 10640 10638 10636 10634 10632 10629 10626 10623 10620 10617 10615 10612 10608 10605 10602 10598 10595 10591 10587 10583 10579 10574 10569 10565 10561 10557 10553 10549 10545 10540 10535 10530 10526 10521 10516 10512 10507 10502 10498 10494 10489 10484 10478 10471 10464 10458 10453 10447 10440 10433 10426 10420 10414 10407 10400 10392 10385 10376 10366 10358
10664 10663 10661 10661 10659 10659 10658 10657 10656 10655 10654 10653 10652 10651 10650 10648 10647 10645 10643 10641 10639 10636 10634 10632 10629 10626 10623 10621 10620 10618 10615 10613 10611 10608 10605 10603 10600 10597 10593 10590 10586 10582 10578 10575 10570 10566 10562 10557 10554 10550 10546 10542 10538 10534 10529 10525 10520 10515 10511 10506 10501 10496 10491 10487 10484 10480 10474 10467 10460 10454 10448 10442 10436 10429 10423 10417 10411 10404 10398 10391 10383 10375 10368 10359 10350
10652 10651 10650 10649 10648 10647 10646 10645 10644 10642 10641 10641 10640 10639 10637 10636 10634 10633 10630 10628 10626 10624 10622 10619 10617 10614 10611 10609 10606 10604 10602 10599 10597 10595 10593 10590 10587 10584 10581 10577 10573 10569 10566 10562 10558 10554 10550 10546 10542 10538 10535 10531 10528 10524 10519 10514 10509 10504 10500 10495 10490 10485 10480 10477 10474 10469 10462 10454 10448 10444 10438 10431 10425 10419 10413 10406 10400 10394 10387 10381 10374 10365 10358 10352 10345
10639 10638 10637 10636 10635 10634 10633 10632 10631 10630 10629 10628 10627 10626 10624 10623 10622 10619 10617 10615 10612 10610 10608 10606 10603 10601 10598 10597 10594 10591 10588 10585 10582 10581 10579 10576 10574 10571 10567 10564 10560 10556 10553 10549 10545 10542 10538 10535 10531 10527 10524 10521 10517 10513 10508 10502 10498 10494 10489 10484 10479 10474 10470 10467 10463 10457 10449 10442 10437 10433 10427 10420 10414 10408 10402 10396 10389 10383 10376 10369 10362 10354 10346 10340 10335
10627 10626 10624 10623 10622 10621 10620 10620 10618 10617 10616 10615 10614 10613 10612 10610 10608 10606 10603 10601 10598 10596 10593 10591 10590 10586 10583 10582 10581 10578 10574 10571 10569 10566 10565 10563 10560 10557 10554 10551 10547 10544 10540 10537 10533 10530 10527 10523 10520 10516 10513 10510 10506 10502 10497 10492 10487 10483 10479 10473 10468 10464 10460 10456 10451 10445 10437 10430 10425 10421 10415 10409 10402 10396 10391 10385 10379 10372 10365 10358 10350 10342 10334 10327 10321
10613 10612 10611 10609 10609 10608 10607 10606 10605 10604 10603 10602 10600 10599 10598 10596 10594 10592 10589 10587 10584 10582 10578 10576 10574 10571 10568 10566 10565 10563 10560 10557 10555 10553 10551 10549 10546 10543 10540 10537 10535 10531 10528 10525 10522 10519 10516 10513 10510 10506 10503 10499 10495 10490 10485 10481 10477 10472 10467 10462 10457 10453 10450 10445 10439 10432 10426 10420 10414 10409 10403 10397 10391 10385 10380 10374 10368 10361 10355 10348 10340 10332 10323 10314 10307
10599 10599 10598 10597 10596 10596 10594 10592 10591 10590 10589 10588 10586 10584 10582 10581 10578 10576 10574 10571 10569 10566 10563 10561 10558 10555 10553 10550 10549 10547 10545 10543 10541 10539 10537 10535 10532 10529 10527 10524 10522 10519 10516 10514 10511 10508 10505 10502 10499 10495 10491 10487 10482 10478 10474 10470 10466 10461 10455 10451 10446 10443 10439 10434 10428 10421 10414 10409 10403 10397 10391 10385 10379 10374 10369 10363 10356 10349 10343 10336 10330 10322 10314 10304 10295
10586 10585 10584 10584 10585 10584 10582 10580 10579 10577 10575 10573 10571 10568 10565 10563 10561 10559 10557 10555 10552 10550 10547 10544 10541 10539 10537 10535 10533 10531 10530 10528 10527 10525 10523 10521 10519 10516 10514 10512 10510 10508 10505 10503 10500 10497 10494 10491 10487 10483 10479 10474 10470 10467 10463 10459 10454 10449 10444 10439 10435 10432 10428 10423 10416 10410 10403 10398 10392 10386 10379 10372 10367 10363 10358 10352 10345 10337 10330 10324 10317 10311 10303 10295 10285
10572 10571 10571 10571 10571 10570 10569 10568 10566 10564 10561 10559 10555 10552 10549 10546 10543 10541 10539 10538 10536 10533 10531 10528 10526 10523 10521 10520 10518 10517 10515 10514 10513 10512 10510 10508 10507 10505 10503 10501 10499 10497 10494 10491 10488 10486 10482 10479 10475 10471 10466 10463 10460 10456 10452 10447 10443 10437 10432 10428 10424 10421 10417 10411 10404 10398 10392 10387 10381 10374 10368 10361 10356 10352 10346 10340 10334 10326 10319 10312 10306 10299 10292 10285 10277
10559 10558 10558 10558 10557 10555 10554 10553 10551 10549 10546 10543 10540 10537 10534 10531 10527 10524 10522 10521 10519 10518 10517 10515 10512 10510 10508 10506 10504 10502 10501 10500 10499 10499 10497 10495 10494 10493 10491 10489 10487 10484 10482 10479 10476 10474 10470 10466 10462 10459 10455 10452 10449 10445 10440 10435 10431 10426 10421 10416 10413 10409 10405 10398 10393 10387 10382 10376 10370 10363 10357 10351 10345 10340 10334 10328 10321 10314 10308 10301 10295 10288 10281 10274 10267
10547 10547 10546 10544 10543 10541 10539 10537 10535 10533 10531 10528 10525 10522 10519 10516 10513 10510 10507 10505 10504 10503 10503 10502 10500 10499 10497 10494 10492 10490 10489 10487 10486 10485 10484 10483 10482 10480 10478 10477 10475 10472 10470 10467 10464 10461 10458 10455 10451 10448 10445 10441 10437 10433 10429 10424 10419 10414 10409 10405 10402 10398 10392 10387 10382 10377 10371 10365 10359 10352 10346 10339 10333 10328 10322 10315 10309 10301 10295 10289 10283 10277 10270 10263 10256
10535 10534 10532 10530 10529 10528 10525 10523 10520 10518 10516 10513 10510 10507 10504 10501 10499 10497 10495 10493 10491 10490 10489 10489 10488 10487 10485 10484 10482 10480 10478 10476 10475 10474 10473 10472 10470 10469 10467 10465 10463 10461 10458 10456 10453 10450 10447 10444 10440 10437 10433 10430 10426 10422 10417 10412 10407 10402 10398 10394 10390 10386 10381 10377 10372 10366 10360 10354 10347 10340 10334 10327 10321 10315 10309 10303 10297 10289 10283 10277 10271 10265 10259 10252 10245
10522 10520 10518 10516 10514 10513 10511 10509 10506 10504 10502 10500 10497 10493 10491 10488 10486 10485 10483 10482 10480 10479 10478 10477 10476 10475 10474 10473 10471 10469 10467 10466 10465 10464 10463 10461 10459 10457 10456 10454 10452 10450 10447 10444 10442 10439 10436 10433 10429 10426 10422 10419 10415 10411 10405 10400 10395 10391 10387 10383 10379 10375 10371 10366 10361 10355 10349 10342 10335 10328 10322 10315 10308 10303 10297 10291 10285 10278 10271 10265 10259 10253 10247 10240 10234
10510 10507 10505 10503 10501 10499 10497 10495 10493 10491 10489 10487 10485 10482 10479 10477 10476 10474 10472 10470 10469 10468 10466 10465 10465 10464 10462 10461 10459 10457 10456 10455 10454 10453 10452 10450 10448 10447 10445 10444 10441 10439 10437 10435 10432 10429 10425 10422 10418 10415 10412 10408 10403 10399 10394 10389 10384 10380 10377 10373 10368 10364 10360 10354 10349 10343 10337 10330 10323 10316 10309 10303 10297 10290 10284 10279 10273 10267 10260 10253 10247 10240 10233 10227 10221
10498 10495 10493 10491 10489 10487 10484 10482 10480 10479 10477 10476 10474 10472 10469 10467 10466 10464 10462 10460 10459 10457 10456 10455 10454 10452 10451 10449 10448 10446 10445 10444 10443 10442 10441 10440 10438 10437 10435 10433 10431 10429 10427 10425 10422 10418 10415 10412 10408 10405 10401 10397 10392 10387 10383 10378 10374 10370 10366 10362 10357 10352 10348 10342 10336 10331 10324 10317 10310 10304 10297 10291 10284 10278 10272 10267 10261 10255 10248 10242 10235 10227 10220 10212 10207
10486 10484 10481 10480 10477 10475 10473 10471 10469 10467 10466 10465 10463 10461 10459 10458 10456 10454 10452 10450 10449 10447 10446 10445 10444 10443 10441 10439 10438 10437 10436 10435 10434 10432 10431 10430 10428 10427 10425 10423 10422 10420 10418 10415 10411 10408 10405 10402 10398 10395 10390 10385 10381 10376 10372 10368 10364 10360 10356 10350 10344 10340 10335 10330 10324 10319 10312 10305 10299 10292 10285 10278 10272 10265 10260 10254 10249 10243 10236 10229 10223 10215 10207 10200 10193
10475 10473 10471 10469 10467 10465 10463 10460 10458 10457 10455 10454 10453 10451 10449 10448 10446 10444 10442 10441 10439 10438 10437 10436 10435 10433 10432 10430 10429 10428 10427 10426 10424 10423 10421 10420 10419 10418 10416 10414 10412 10410 10408 10405 10401 10398 10395 10391 10388 10384 10380 10374 10369 10365 10361 10357 10353 10349 10344 10338 10332 10328 10323 10318 10312 10307 10301 10294 10288 10281 10274 10267 10260 10254 10248 10242 10236 10231 10224 10217 10211 10205 10197 10189 10180
10464 10462 10460 10459 10457 10455 10453 10451 10449 10447 10445 10444 10443 10441 10440 10438 10437 10435 10433 10432 10431 10429 10428 10426 10425 10424 10422 10421 10420 10419 10417 10416 10414 10412 10411 10411 10410 10408 10406 10403 10401 10399 10397 10395 10391 10387 10384 10381 10377 10373 10368 10362 10357 10353 10349 10346 10341 10337 10332 10326 10321 10316 10311 10306 10301 10295 10289 10283 10277 10270 10263 10257 10250 10244 10237 10231 10225 10220 10213 10206 10200 10194 10188 10179 10170
10454 10453 10451 10449 10448 10446 10444 10442 10441 10439 10437 10436 10434 10432 10431 10430 10428 10426 10424 10423 10422 10420 10418 10417 10415 10414 10413 10411 10410 10408 10406 10404 10402 10401 10401 10400 10398 10396 10394 10392 10390 10388 10386 10383 10380 10376 10373 10369 10365 10360 10355 10349 10345 10341 10337 10333 10329 10325 10320 10315 10310 10305 10300 10294 10289 10283 10278 10272 10266 10259 10253 10247 10240 10234 10227 10221 10215 10209 10203 10196 10189 10183 10176 10169 10160
10446 10444 10443 10441 10440 10438 10437 10435 10433 10432 10430 10428 10427 10425 10423 10422 10420 10418 10416 10414 10413 10411 10409 10407 10405 10404 10403 10401 10399 10397 10395 10393 10391 10390 10389 10388 10386 10385 10383 10381 10378 10376 10374 10371 10368 10364 10360 10356 10351 10346 10341 10337 10334 10330 10325 10321 10317 10314 10309 10304 10299 10294 10288 10283 10277 10271 10266 10261 10255 10249 10242 10236 10229 10224 10217 10210 10204 10198 10191 10185 10177 10171 10164 10158 10150
10439 10437 10436 10434 10432 10431 10430 10428 10426 10425 10423 10421 10419 10418 10416 10414 10412 10410 10408 10406 10404 10402 10400 10397 10395 10394 10393 10391 10389 10387 10384 10381 10379 10379 10378 10376 10374 10373 10371 10368 10366 10364 10361 10359 10355 10352 10347 10342 10337 10333 10329 10326 10323 10318 10313 10310 10307 10303 10298 10293 10288 10283 10277 10272 10266 10260 10255 10250 10244 10237 10231 10224 10218 10212 10205 10198 10191 10185 10178 10171 10164 10158 10152 10145 10138
10432 10430 10429 10427 10425 10424 10422 10421 10419 10417 10416 10414 10412 10410 10408 10406 10404 10402 10400 10398 10396 10393 10391 10388 10386 10385 10383 10381 10379 10377 10374 10371 10369 10368 10366 10364 10362 10361 10359 10356 10354 10351 10348 10346 10342 10338 10334 10329 10325 10321 10318 10315 10311 10306 10302 10299 10296 10292 10287 10283 10278 10272 10266 10261 10255 10249 10244 10238 10232 10226 10219 10212 10205 10199 10193 10185 10178 10171 10165 10158 10151 10145 10138 10132 10125
10424 10423 10422 10420 10418 10417 10415 10413 10412 10410 10408 10407 10405 10403 10401 10399 10397 10395 10393 10391 10389 10386 10384 10381 10378 10376 10374 10372 10369 10367 10364 10361 10359 10357 10355 10353 10351 10349 10347 10345 10342 10339 10336 10333 10330 10325 10321 10317 10314 10310 10306 10303 10300 10295 10291 10288 10284 10280 10276 10273 10268 10262 10256 10249 10243 10238 10232 10226 10220 10213 10207 10199 10193 10187 10180 10173 10165 10158 10152 10146 10139 10133 10125 10118 10112
10417 10415 10414 10412 10411 10410 10407 10406 10405 10403 10401 10400 10398 10396 10394 10392 10390 10388 10386 10384 10381 10379 10376 10374 10371 10368 10366 10363 10361 10358 10355 10352 10350 10347 10345 10342 10340 10338 10336 10334 10332 10328 10324 10320 10317 10313 10309 10306 10302 10299 10295 10291 10288 10284 10280 10277 10273 10269 10266 10262 10257 10251 10245 10238 10231 10226 10220 10214 10208 10202 10195 10188 10181 10175 10168 10161 10154 10146 10140 10134 10127 10121 10113 10105 10098
10410 10408 10406 10405 10403 10402 10400 10399 10397 10395 10394 10392 10390 10388 10387 10384 10382 10380 10378 10375 10373 10371 10369 10366 10363 10360 10357 10354 10352 10349 10346 10343 10340 10337 10334 10332 10330 10327 10325 10323 10321 10317 10312 10308 10305 10301 10298 10295 10292 10288 10284 10280 10277 10273 10269 10265 10261 10258 10254 10250 10245 10239 10233 10226 10220 10214 10208 10202 10196 10190 10183 10176 10170 10163 10157 10150 10143 10135 10128 10122 10115 10108 10101 10093 10085
10403 10401 10399 10397 10396 10394 10392 10391 10389 10387 10386 10384 10383 10381 10379 10377 10376 10373 10370 10368 10365 10363 10361 10358 10355 10353 10349 10346 10344 10341 10338 10335 10331 10328 10324 10321 10319 10317 10315 10313 10310 10305 10301 10298 10295 10290 10287 10284 10281 10277 10273 10269 10265 10261 10257 10253 10249 10245 10241 10237 10232 10228 10222 10215 10208 10202 10196 10190 10184 10178 10171 10165 10159 10152 10146 10139 10132 10124 10117 10110 10103 10096 10089 10082 10073
10396 10395 10392 10390 10389 10387 10385 10383 10381 10380 10378 10377 10375 10374 10372 10370 10368 10366 10363 10361 10358 10355 10353 10350 10347 10345 10342 10338 10336 10334 10331 10327 10323 10318 10315 10311 10308 10306 10306 10303 10298 10294 10291 10289 10284 10279 10276 10273 10270 10266 10262 10258 10254 10250 10245 10240 10236 10232 10228 10224 10220 10215 10210 10203 10196 10189 10184 10178 10172 10166 10160 10153 10147 10141 10134 10127 10120 10113 10105 10098 10091 10084 10077 10069 10061
10389 10387 10385 10383 10381 10379 10378 10376 10374 10372 10370 10369 10367 10365 10363 10361 10359 10356 10354 10351 10349 10346 10344 10341 10338 10336 10333 10330 10327 10324 10321 10318 10314 10310 10305 10301 10297 10296 10295 10292 10288 10283 10280 10277 10273 10269 10265 10262 10258 10254 10250 10246 10242 10238 10233 10228 10223 10219 10215 10211 10207 10202 10196 10190 10183 10176 10170 10165 10159 10153 10147 10140 10134 10128 10121 10115 10107 10099 10092 10085 10078 10071 10063 10056 10048
10380 10378 10377 10375 10373 10371 10369 10367 10365 10364 10362 10360 10358 10356 10354 10351 10349 10346 10344 10341 10338 10336 10333 10329 10327 10324 10322 10319 10316 10313 10310 10307 10303 10300 10295 10291 10287 10285 10283 10280 10277 10273 10269 10265 10261 10258 10254 10249 10245 10241 10238 10234 10230 10225 10220 10215 10210 10206 10202 10198 10193 10189 10183 10176 10169 10163 10156 10151 10145 10139 10133 10126 10120 10113 10107 10100 10092 10084 10077 10071 10063 10055 10048 10041 10033
10370 10368 10366 10364 10363 10361 10359 10357 10355 10353 10351 10349 10348 10345 10343 10340 10338 10335 10333 10330 10327 10324 10321 10318 10314 10311 10309 10306 10304 10301 10298 10294 10290 10287 10283 10280 10277 10274 10271 10268 10265 10261 10256 10252 10248 10246 10243 10238 10233 10228 10224 10220 10216 10212 10207 10202 10197 10193 10188 10184 10179 10174 10168 10161 10155 10148 10142 10136 10130 10124 10118 10112 10105 10098 10091 10084 10076 10069 10062 10055 10048 10040 10032 10025 10019
10358 10357 10355 10353 10352 10350 10348 10346 10344 10342 10340 10338 10336 10333 10331 10329 10326 10323 10320 10317 10315 10312 10309 10306 10302 10299 10296 10293 10290 10288 10285 10282 10277 10274 10270 10267 10264 10261 10258 10256 10252 10248 10244 10240 10235 10233 10231 10227 10221 10216 10211 10206 10202 10197 10192 10187 10182 10178 10174 10170 10165 10159 10153 10146 10139 10133 10126 10120 10114 10109 10103 10096 10089 10082 10075 10067 10060 10053 10046 10039 10032 10026 10018 10011 10005
10346 10345 10343 10342 10340 10338 10337 10335 10333 10331 10329 10326 10323 10321 10320 10317 10315 10312 10309 10306 10303 10299 10296 10293 10290 10287 10283 10280 10277 10275 10272 10268 10265 10261 10258 10254 10251 10247 10244 10242 10239 10235 10231 10227 10223 10219 10217 10213 10209 10204 10198 10193 10187 10183 10178 10173 10168 10163 10159 10155 10150 10144 10137 10130 10124 10117 10110 10104 10098 10093 10087 10080 10073 10065 10058 10051 10044 10037 10030 10024 10017 10011 10004 9997 9990
10335 10333 10332 10330 10328 10327 10325 10323 10321 10319 10317 10315 10312 10310 10308 10306 10303 10301 10299 10296 10293 10290 10287 10283 10280 10276 10272 10268 10265 10262 10258 10255 10251 10248 10245 10241 10237 10234 10230 10227 10224 10221 10218 10213 10209 10205 10202 10199 10195 10190 10185 10179 10174 10169 10164 10158 10153 10148 10144 10139 10134 10128 10122 10114 10107 10100 10094 10088 10082 10077 10071 10064 10057 10049 10042 10035 10028 10022 10015 10008 10001 9995 9989 9982 9975
10323 10322 10321 10319 10317 10316 10314 10312 10310 10308 10305 10303 10301 10298 10295 10293 10290 10287 10284 10282 10280 10277 10274 10271 10267 10264 10260 10256 10253 10250 10246 10242 10238 10235 10232 10229 10225 10221 10217 10213 10210 10207 10204 10200 10195 10191 10187 10184 10180 10176 10171 10166 10160 10154 10149 10144 10138 10133 10128 10124 10119 10113 10106 10098 10091 10084 10078 10072 10067 10061 10055 10048 10041 10034 10026 10019 10013 10007 10000 9993 9986 9980 9973 9966 9960
10309 10309 10307 10306 10305 10304 10302 10300 10298 10296 10293 10290 10288 10285 10283 10281 10278 10275 10273 10270 10267 10264 10261 10257 10254 10250 10246 10243 10240 10236 10233 10229 10226 10222 10219 10215 10212 10208 10204 10200 10197 10193 10190 10186 10182 10177 10174 10170 10166 10161 10156 10151 10145 10139 10134 10128 10122 10117 10112 10107 10102 10096 10089 10081 10074 10067 10062 10057 10051 10045 10039 10032 10025 10018 10011 10004 9998 9992 9985 9977 9970 9964 9957 9950 9944
10297 10295 10294 10293 10291 10290 10288 10286 10284 10282 10280 10278 10275 10273 10270 10268 10266 10263 10261 10258 10255 10252 10248 10244 10240 10237 10233 10229 10226 10223 10220 10216 10212 10209 10205 10202 10198 10195 10191 10187 10183 10180 10176 10172 10167 10163 10159 10155 10150 10146 10141 10135 10129 10123 10118 10112 10106 10100 10095 10090 10085 10080 10073 10065 10057 10051 10046 10040 10035 10029 10022 10016 10009 10001 9994 9988 9982 9975 9968 9961 9953 9946 9940 9934 9928
10282 10281 10280 10278 10277 10275 10274 10273 10271 10269 10267 10265 10262 10260 10258 10255 10253 10250 10247 10243 10240 10237 10233 10230 10226 10222 10218 10215 10212 10209 10206 10203 10199 10195 10192 10188 10185 10181 10177 10174 10170 10167 10162 10158 10153 10149 10144 10140 10134 10130 10125 10119 10114 10108 10102 10096 10090 10084 10078 10072 10067 10062 10055 10048 10041 10035 10030 10023 10017 10012 10005 9998 9991 9984 9977 9971 9965 9958 9950 9943 9936 9929 9923 9917 9912
10268 10267 10266 10264 10263 10262 10260 10259 10257 10255 10254 10251 10249 10247 10244 10241 10239 10237 10234 10230 10227 10223 10219 10215 10211 10207 10204 10201 10197 10194 10191 10188 10185 10181 10178 10174 10171 10167 10163 10159 10156 10152 10148 10144 10139 10135 10130 10125 10119 10114 10109 10103 10098 10092 10086 10080 10073 10067 10060 10054 10049 10043 10038 10031 10025 10019 10013 10006 10000 9994 9987 9981 9973 9966 9960 9954 9948 9940 9932 9925 9918 9912 9906 9900 9895
10255 10253 10252 10250 10249 10248 10246 10245 10243 10242 10240 10238 10235 10233 10230 10227 10225 10222 10219 10216 10212 10208 10204 10199 10195 10191 10188 10185 10182 10179 10176 10173 10169 10166 10162 10159 10156 10152 10148 10145 10141 10136 10132 10128 10124 10119 10115 10110 10104 10099 10093 10088 10082 10076 10070 10063 10057 10050 10044 10037 10031 10026 10020 10014 10008 10001 9995 9988 9982 9975 9969 9963 9955 9948 9942 9936 9929 9922 9915 9907 9900 9894 9889 9883 9877
10241 10239 10238 10237 10235 10234 10232 10231 10230 10228 10226 10224 10221 10218 10215 10213 10210 10207 10204 10201 10197 10193 10188 10184 10179 10176 10172 10169 10166 10163 10160 10157 10154 10150 10147 10143 10140 10136 10132 10129 10125 10120 10116 10112 10106 10102 10098 10093 10089 10083 10078 10072 10066 10060 10053 10047 10041 10034 10028 10021 10015 10009 10003 9996 9990 9983 9977 9970 9964 9957 9950 9944 9937 9930 9924 9918 9911 9904 9896 9889 9882 9876 9871 9865 9860
10227 10225 10224 10223 10221 10219 10218 10217 10215 10213 10211 10209 10206 10203 10201 10198 10195 10192 10188 10185 10181 10177 10172 10168 10163 10160 10156 10153 10150 10147 10144 10141 10138 10134 10131 10127 10123 10119 10116 10112 10108 10104 10100 10095 10090 10085 10080 10076 10071 10066 10060 10054 10048 10043 10037 10031 10025 10018 10011 10004 9998 9991 9985 9978 9971 9965 9958 9952 9945 9938 9931 9925 9918 9912 9905 9898 9891 9885 9878 9871 9865 9859 9854 9848 9844
10212 10211 10209 10208 10206 10205 10203 10201 10200 10198 10196 10193 10191 10188 10185 10182 10179 10176 10172 10168 10164 10160 10156 10151 10147 10144 10141 10138 10135 10131 10128 10125 10122 10118 10115 10111 10107 10103 10100 10096 10092 10088 10083 10079 10074 10069 10064 10059 10054 10048 10042 10036 10031 10025 10019 10013 10007 10000 9994 9988 9981 9974 9967 9960 9953 9947 9941 9934 9927 9920 9912 9906 9899 9893 9886 9880 9873 9866 9860 9854 9848 9843 9838 9833 9828
10198 10196 10194 10193 10191 10189 10187 10186 10184 10182 10180 10178 10175 10172 10169 10166 10163 10159 10155 10152 10148 10143 10139 10135 10131 10128 10125 10122 10119 10116 10113 10109 10106 10102 10098 10094 10091 10087 10083 10079 10075 10071 10066 10061 10057 10052 10047 10041 10036 10031 10025 10019 10013 10006 10001 9994 9988 9982 9976 9970 9963 9955 9948 9942 9936 9930 9923 9915 9908 9900 9893 9886 9880 9874 9868 9861 9855 9849 9842 9837 9832 9827 9822 9817 9813